Погода в Витиме

Погода в Витиме : погода сейчас, прогноз погоды и архив. Всё, что Вы хотите узнать о погоде в Витиме!

Хотите узнать прогноз погоды в Витиме? Тогда Вам сюда: Погода в Витиме

Поиск расширенной информации на нашем сайте:

Другие новости

Новости СМИ2

Главная страница сайта

Новости сайта

03.07.2017

Напоминаем, что на нашем специализированном сайте Метеоцентр.Азия вы можете получить высокодетализированные автоматические прогнозы погоды по пунктам России, СНГ и мира в авиационном формате (включающие направление и скорость ветра, видимость, явления погоды, количество и форму облачности, нижнюю и верхнюю границу облачности).


Погода в Витиме - сегодня

Время (UTC), дата Ветер
(°,м/с) 
Видим.   Явления Облачность Т
(°С)
Тd
(°С)
f(%) Тe
(°С)
Pmin
(гПа)
dP
(гПа)
Po
(мм)
O2
(г/м3)
Тmin Tmax R s Состояние
почвы
18 16.02.18 тихо ()   20000 м  слаб. снег  10/0 средняя, верхняя 
[Ac lent|Cs]
-27 -30.2 74 -27  1027  -0.3  750  337           
21 16.02.18 тихо ()   20000 м  слаб. снег  10/0 средняя, верхняя 
[Ac lent|Cs]
-26.5 -29.7 74 -27  1026.3  -0.6  750  336           
03 17.02.18 150 (ЮВ) 20000 м  слаб. снег  10/0 средняя, верхняя 
[Ac lent|Cs]
-22.9 -25.5 79 -28  1025.4  -0.2  749  331           
06 17.02.18 200 (Ю) 20000 м  слаб. снег  10/4 1000 м средняя, верхняя 
[Sc|Ac lent|Cs]
-15.5 -18.9 75 -20  1024.3  -0.3  749  322           
09 17.02.18 210 (ЮЗ) 20000 м  {снег}  9/5 600 м средняя, верхняя 
[Sc|Ac trans|Cs]
-15.3 -18.7 75 -18  1024.9  0.6  750  321           
15 17.02.18 тихо ()   20000 м  слаб. снег  10/0 средняя, верхняя 
[Ac lent|Cs]
-18.6 -21.2 80 -19  1027.6  0.8  751  326           
18 17.02.18 290 (З) 20000 м  слаб. снег  10/0 средняя, верхняя 
[Ac lent|Cs]
-20.5 -23.1 80 -21  1027.8  0.1  751  329           
21 17.02.18 240 (ЮЗ) 20000 м  слаб. снег  10/0 средняя, верхняя 
[Ac lent|Cs]
-21.6 -24.1 80 -25  1029  0.9  752  331           
06 18.02.18 тихо ()   20000 м  слаб. снег  9/0 средняя, верхняя 
[Ac lent|Cs]
-16.5 -19.9 75 -17  1028.5  -0.6  752  324           
09 18.02.18 220 (ЮЗ) 20000 м  {снег}  8/0 средняя, верхняя 
[Ac lent|Ci fib]
-17.1 -19.7 80 -17  1028.2  -0.4  752  325           
15 18.02.18 тихо ()   20000 м    10/0 верхняя 
[Cs]
-22.7 -25.2 80 -23  1029.4  -0.2  752  332           
18 18.02.18 тихо ()   20000 м    10/0 верхняя 
[Cs]
-25.7 -28.1 80 -26  1029.3  -0.4  752  336           
21 18.02.18 тихо ()   20000 м    10/0 верхняя 
[Cs]
-24.7 -27.2 80 -25  1028.6  -0.5  752  335           
03 19.02.18 190 (Ю) 20000 м  слаб. снег  10/0 средняя, верхняя 
[Ac lent|Cs]
-18.9 -21.5 80 -23  1027.6  -0.1  751  327           
06 19.02.18 200 (Ю) 10 км  слаб. ливневой снег  10/4 600 м кучево-дожд., средняя, верхняя 
[Cb cap|Ac lent|Cs]
-15.4 -19.6 70 -19  1026  -1.2  750  322           
09 19.02.18 210 (ЮЗ) 10 км  слаб. ливневой снег  10/5 600 м кучево-дожд., средняя, верхняя 
[Cb cap|Ac lent|Cs]
-14.4 -17.9 75 -19  1025.1  -0.8  750  320           
15 19.02.18 210 (ЮЗ) 20000 м  слаб. ливневой снег  10/3 600 м кучево-дожд., средняя, верхняя 
[Cb cap|Ac lent|Cs]
-15.2 -17.9 80 -19  1025.3  -0.1  750  321           
18 19.02.18 200 (Ю) 20000 м  слаб. ливневой снег  10/3 600 м кучево-дожд., средняя, верхняя 
[Cb cap|Ac lent|Cs]
-16.2 -18.8 80 -19  1024.7  -0.7  749  323           
21 19.02.18 210 (ЮЗ) 20000 м  {ливн. осадки}  10/0 средняя, верхняя 
[Ac lent|Cs]
-17.9 -20.5 80 -22  1024  -0.8  749  324           
06 20.02.18 200 (Ю) 20000 м  слаб. снег  9/0 средняя, верхняя 
[Ac lent|Cs]
-15.2 -18.6 75 -19  1020.2  -1.7  746  320           
09 20.02.18 240 (ЮЗ) 20000 м  слаб. снег  10/0 средняя, верхняя 
[Ac lent|Cs]
-14.5 -18 75 -17  1019.3  -0.8  746  319           
15 20.02.18 тихо ()   20000 м  слаб. снег  10/0 средняя, верхняя 
[Ac lent|Cs]
-18.6 -20.5 85 -19  1019.8  746  324           
18 20.02.18 200 (Ю) 20000 м  слаб. снег  10/0 средняя, верхняя 
[Ac lent|Cs]
-20.5 -23.1 80 -23  1020.1  0.2  746  327           
21 20.02.18 тихо ()   20000 м  слаб. снег  10/0 средняя, верхняя 
[Ac lent|Cs]
-23.4 -25.9 80 -23  1020.7  0.3  746  331           
06 21.02.18 210 (ЮЗ) 20000 м  слаб. снег  10/3 1000 м верхняя 
[Sc|Cs]
-16.7 -20.1 75 -17  1021.4  -0.3  747  322           
Время (UTC), дата Ветер
(°,м/с) 
Видим.   Явления Облачность Т
(°С)
Тd
(°С)
f(%) Тe
(°С)
Pmin
(гПа)
dP
(гПа)
Po
(мм)
O2
(г/м3)
Тmin Tmax R s Состояние
почвы

Для получения пояснительной информации подведите курсор к названию столбца.

ПОГОДА в Витиме - архив

Всё, что Вы хотите узнать о погоде в Витиме - удобно и подробно!

Выберите нужную дату (начиная с 1 января 2015* года) и нажмите кнопку "Найти".
Будут отображены архивные сводки погоды по пункту Витим, начиная с указанной даты.


Отображать данные в формате CSV (для использования в таблицах Excel)


Внимание! Наш архив погоды предназначен исключительно для личного некоммерческого использования в познавательных целях. Если Вам необходимы официальные справки о состоянии погоды (для производственных, юридических, коммерческих и т.п. целей), обращайтесь в органы Росгидромета.

*Примечание: данная дата относится к архиву по метеостанциям СССР (Россия, СНГ, Балтия).
Архив по метеостанциям Зарубежной Европы и Азии (кроме Китая) хранится 10 дней, по другим регионам земного шара (Китай, Африка, Америка, Австралия, Океания) - 1 день.

Витим - район местоположения метеостанции


Название, широта, долгота, высота метеостанции:
Витим 59.4°ш. 112.6°д. 190 м над ур. моря [Российская Федерация]

Дополнительная информация

В oтличие oт бoльшинства пoгoдных сайтoв мы публикуем пoдрoбную метеoинфoрмацию в детальнoм прoфессиoнальнoм фoрмате.

Характеристики температуры и влажнoсти вoздуха измеряются на высoте 2 м в тени вдали oт зданий и деревьев.
Скoрoсть ветра измеряется на высoте 10 м (на урoвне рoста челoвека скoрoсть ветра ниже в 1.5-2 раза). Если метеoстанция нахoдится в гoрoде или в лесу, тo скoрoсть ветра занижена на 2-4 м/с пo сравнению с oткрытым местoм. Скoрoсть ветра над акватoриями крупных рек и oзёр, а также на вершинах хoлмoв на 2-5 м/с выше, чем в oбычных услoвиях.
Атмoсфернoе давление в разных тoчках местнoсти мoжет значительнo oтличаться oт давления на метеoстанции, в зависимoсти oт услoвий рельефа (при пoдъёме на 10 м давление пoнижается примернo на 1 мм рт.ст.).